[[{"header":{"parameterUnit":"m.s-1","parameterCategory":1,"la1":30.2991,"la2":30.254,"lo1":-89.0895,"lo2":-89.0444,"dy":0.0017,"dx":0.0017,"nx":28,"ny":28,"refTime":"2026-03-03T03:00:00:Z","depth":0,"parameterNumber":2,"parameterNumberName":"U-component_of_WINDS"},"data":[0,0,0,0,0,0,0,0,0,0,0,0,0,0,0,0,0,0,0,0,0,0,0,0,0,0,0,0,0,0,0,0,0,0,0,0,0,0,0,0,0,0,0,0,0,0,0,0,0,0,0,0,0,0,0,0,0,0,-2.0175,-2.0175,0,-2.0196,-2.0196,-2.0196,-2.0174,-2.0173,-2.0173,-2.0172,-2.0195,-2.0197,-2.0198,0,0,0,0,0,0,0,0,0,0,0,0,0,-2.0119,-2.012,-2.0175,-2.0175,-2.0175,-2.0196,-2.0196,-2.0196,-2.0174,-2.0173,-2.0172,-2.0171,-2.0195,-2.0197,-2.0198,0,0,0,0,0,0,0,0,0,0,0,0,0,-2.0142,-2.0121,-2.0175,-2.0167,-2.0166,-2.0195,-2.0196,-2.0196,-2.0175,-2.0173,-2.0172,-2.0171,-2.0194,-2.0196,-2.0199,-2.0237,0,0,-2.0205,-2.0206,0,0,0,0,0,0,0,0,-2.0141,-2.0144,-2.0168,-2.0167,-2.0167,-2.0181,-2.0185,-2.021,-2.0175,-2.0172,-2.0172,-2.017,-2.0192,-2.0194,-2.0201,-2.0238,-2.0239,-2.0205,-2.0206,-2.0207,-2.0208,0,0,0,0,0,0,0,-2.0139,-2.0143,-2.0183,-2.0168,-2.0168,-2.0163,-2.0165,-2.0189,-2.0189,-2.0172,-2.017,-2.0173,-2.0191,-2.0199,-2.0201,-2.024,-2.0205,-2.0207,-2.0208,-2.0209,-2.031,-2.0312,0,0,0,0,0,0,-2.0138,-2.0142,-2.0182,-2.0184,-2.015,-2.0165,-2.0167,-2.0178,-2.0188,-2.0189,-2.0174,-2.0172,-2.0196,-2.0199,-2.0202,-2.0248,-2.0207,-2.0209,-2.0211,-2.0309,-2.0311,-2.0312,0,0,0,0,0,0,-2.0137,-2.0142,-2.0182,-2.0162,-2.0167,-2.0168,-2.018,-2.0179,-2.0186,-2.019,-2.019,-2.0181,-2.0195,-2.0199,-2.0228,-2.0248,-2.021,-2.0212,-2.0307,-2.0309,-2.0311,-2.0339,0,0,0,0,0,0,-2.0135,-2.0142,-2.0155,-2.0163,-2.0168,-2.0207,-2.0181,-2.018,-2.019,-2.0187,-2.0197,-2.0197,-2.0194,-2.0225,-2.0231,-2.025,-2.0214,-2.0305,-2.0308,-2.0311,-2.0337,-2.0342,-2.0347,0,0,0,0,0,-2.0134,-2.0163,-2.0156,-2.0161,-2.0185,-2.0208,-2.0211,-2.0206,-2.0191,-2.0206,-2.0208,-2.0197,-2.0246,-2.0229,-2.0234,-2.0255,-2.0304,-2.0307,-2.0311,-2.0334,-2.0341,-2.0347,0,0,0,0,0,0,-2.0158,-2.0164,-2.0156,-2.0189,-2.0198,-2.0204,-2.0222,-2.0213,-2.0227,-2.0224,-2.0219,-2.0221,-2.0252,-2.0257,-2.0238,-2.0293,-2.0273,-2.0277,-2.0289,-2.0295,-2.03,-2.0298,-2.0216,0,0,0,0,0,-2.0167,-2.0185,-2.0189,-2.0217,-2.0222,-2.0221,-2.0231,-2.0227,-2.0236,-2.024,-2.0245,-2.0255,-2.0273,-2.0284,-2.0301,-2.0338,-2.034,-2.0355,-2.036,-2.0364,-2.0368,-2.0388,-2.0395,-2.0323,-2.0323,-2.0323,0,0,-2.0187,-2.0192,-2.0203,-2.0222,-2.0229,-2.0247,-2.0225,-2.0245,-2.0259,-2.0244,-2.0271,-2.0275,-2.0287,-2.032,-2.0335,-2.0325,-2.0389,-2.0368,-2.0372,-2.0373,-2.0392,-2.0399,-2.0405,-2.0325,-2.0324,-2.0324,0,0,-2.0231,-2.0236,-2.026,-2.0268,-2.0278,-2.0277,-2.0283,-2.0291,-2.0293,-2.0321,-2.0309,-2.0327,-2.0357,-2.0366,-2.0374,-2.0423,-2.0413,-2.0429,-2.0455,-2.0475,-2.048,-2.0485,-2.0502,-2.0509,-2.0433,-2.0433,-2.0433,0,-2.0253,-2.028,-2.0274,-2.0295,-2.0304,-2.0291,-2.0316,-2.0323,-2.0339,-2.0346,-2.0334,-2.0372,-2.0379,-2.0414,-2.0426,-2.0434,-2.0441,-2.0427,-2.048,-2.0485,-2.0489,-2.0506,-2.0512,-2.0435,-2.0434,-2.0434,-2.0434,0,-2.0307,-2.0326,-2.0344,-2.0359,-2.037,-2.0393,-2.0392,-2.0404,-2.0399,-2.0401,-2.043,-2.0438,-2.0455,-2.0464,-2.0459,-2.0499,-2.0492,-2.0481,-2.0459,-2.0498,-2.0513,-2.052,-2.0437,-2.0436,-2.0436,-2.0435,0,0,-2.0365,-2.0377,-2.0384,-2.039,-2.0401,-2.0416,-2.044,-2.0456,-2.0467,-2.0479,-2.0498,-2.0525,-2.0514,-2.0524,-2.0521,-2.0538,-2.0576,-2.0525,-2.0525,-2.0533,-2.062,-2.0628,-2.0635,-2.0571,-2.0572,-2.0573,-2.0619,0,-2.0409,-2.0448,-2.0444,-2.0481,-2.0499,-2.0487,-2.0507,-2.0517,-2.0519,-2.0535,-2.0538,-2.0557,-2.0542,-2.0547,-2.0564,-2.0568,-2.0594,-2.0565,-2.0589,-2.059,-2.0585,-2.0643,-2.0652,-2.0695,-2.0625,-2.0626,-2.0627,0,-2.0465,-2.0478,-2.0516,-2.0525,-2.0532,-2.055,-2.0566,-2.0581,-2.0593,-2.0593,-2.0604,-2.0599,-2.0623,-2.0603,-2.0636,-2.0617,-2.0627,-2.0631,-2.0632,-2.0633,-2.061,-2.0645,-2.0708,-2.0714,-2.0636,-2.0636,-2.0635,0,-2.0503,-2.053,-2.0557,-2.0563,-2.0574,-2.0587,-2.0593,-2.0602,-2.0613,-2.0627,-2.0634,-2.0651,-2.0661,-2.0675,-2.0674,-2.0659,-2.0709,-2.0688,-2.071,-2.071,-2.072,-2.0719,-2.0784,-2.0728,-2.0728,-2.0728,-2.0728,0,-2.0551,-2.0575,-2.0574,-2.059,-2.0617,-2.0614,-2.0641,-2.0645,-2.0654,-2.0672,-2.0664,-2.068,-2.0679,-2.0697,-2.0697,-2.0725,-2.0729,-2.0731,-2.073,-2.0731,-2.0731,-2.0736,-2.0733,-2.073,-2.0729,-2.0729,-2.0729,0,-2.0597,-2.0598,-2.0626,-2.0634,-2.0637,-2.0656,-2.0664,-2.068,-2.0682,-2.0705,-2.071,-2.0713,-2.0734,-2.0735,-2.0759,-2.0759,-2.0793,-2.0789,-2.0788,-2.0787,-2.0809,-2.0806,-2.0879,-2.0889,-2.0827,-2.0828,-2.0829,0,-2.0628,-2.0646,-2.0656,-2.0667,-2.0673,-2.0691,-2.0701,-2.0699,-2.0711,-2.0726,-2.074,-2.0759,-2.0774,-2.0808,-2.0813,-2.0832,-2.0828,-2.0853,-2.0831,-2.0831,-2.0828,-2.0826,-2.0828,-2.0856,-2.0857,-2.0858,-2.0858,0,-2.0681,-2.0681,-2.0696,-2.0712,-2.0724,-2.0737,-2.0749,-2.0758,-2.0758,-2.0771,-2.0792,-2.0803,-2.0828,-2.0847,-2.0865,-2.0872,-2.0865,-2.0865,-2.0871,-2.0871,-2.0869,-2.087,-2.0799,-2.0863,-2.0863,-2.0862,-2.0862,-2.0862,-2.072,-2.0736,-2.0745,-2.0763,-2.0771,-2.0782,-2.0798,-2.0802,-2.0818,-2.0837,-2.0835,-2.0858,-2.087,-2.0893,-2.0902,-2.092,-2.0912,-2.0921,-2.0923,-2.0925,-2.0926,-2.0868,-2.0924,-2.0924,-2.0923,-2.0923,-2.0923,0,-2.0773,-2.0778,-2.0795,-2.0811,-2.0825,-2.0817,-2.083,-2.0842,-2.0862,-2.0873,-2.0888,-2.0912,-2.0931,-2.0939,-2.0958,-2.0971,-2.0968,-2.0976,-2.0974,-2.0976,-2.0933,-2.0925,-2.0978,-2.0978,-2.0978,-2.0978,-2.0978,-2.0978,-2.0801,-2.0827,-2.0828,-2.0858,-2.0864,-2.0886,-2.0894,-2.0904,-2.0913,-2.094,-2.0955,-2.096,-2.097,-2.099,-2.1007,-2.1009,-2.1016,-2.1025,-2.1026,-2.0985,-2.0979,-2.0974,-2.0967,-2.1027,-2.1027,-2.1067,-2.1068,-2.1068]},{"header":{"parameterUnit":"m.s-1","parameterCategory":1,"la1":30.2991,"la2":30.254,"lo1":-89.0895,"lo2":-89.0444,"dy":0.0017,"dx":0.0017,"nx":28,"ny":28,"refTime":"2026-03-03T03:00:00:Z","depth":0,"parameterNumber":3,"parameterNumberName":"V-component_of_WINDS"},"data":[0,0,0,0,0,0,0,0,0,0,0,0,0,0,0,0,0,0,0,0,0,0,0,0,0,0,0,0,0,0,0,0,0,0,0,0,0,0,0,0,0,0,0,0,0,0,0,0,0,0,0,0,0,0,0,0,0,0,1.418,1.418,0,1.4161,1.4161,1.4161,1.4194,1.4195,1.4196,1.4197,1.4174,1.4172,1.417,0,0,0,0,0,0,0,0,0,0,0,0,0,1.4239,1.4238,1.418,1.418,1.4179,1.4162,1.4161,1.4161,1.4193,1.4195,1.4196,1.4197,1.4174,1.4172,1.417,0,0,0,0,0,0,0,0,0,0,0,0,0,1.4216,1.4238,1.418,1.4194,1.4195,1.4162,1.4161,1.4161,1.4193,1.4195,1.4197,1.4198,1.4175,1.4173,1.417,1.4121,0,0,1.4163,1.4161,0,0,0,0,0,0,0,0,1.4218,1.4214,1.4192,1.4193,1.4194,1.4182,1.4174,1.4148,1.4193,1.4194,1.4197,1.4199,1.4175,1.4172,1.4165,1.412,1.4119,1.4162,1.4161,1.416,1.4159,0,0,0,0,0,0,0,1.4219,1.4215,1.4172,1.4191,1.4192,1.4199,1.4198,1.4169,1.4175,1.4194,1.4196,1.4194,1.4176,1.4167,1.4165,1.4119,1.4162,1.416,1.4159,1.4158,1.4034,1.4032,0,0,0,0,0,0,1.422,1.4216,1.4173,1.4172,1.421,1.4197,1.4195,1.4184,1.4175,1.4176,1.4192,1.4195,1.4171,1.4168,1.4164,1.4107,1.416,1.4157,1.4156,1.4036,1.4034,1.4032,0,0,0,0,0,0,1.4221,1.4216,1.4174,1.4195,1.419,1.4194,1.4181,1.4182,1.4175,1.4174,1.4175,1.4183,1.4172,1.4168,1.4132,1.4107,1.4156,1.4154,1.4038,1.4035,1.4033,1.3992,0,0,0,0,0,0,1.4222,1.4216,1.4198,1.4194,1.4189,1.4143,1.4179,1.4181,1.4171,1.4174,1.4166,1.4166,1.4173,1.4136,1.413,1.4104,1.4152,1.404,1.4037,1.4034,1.3996,1.3988,1.3982,0,0,0,0,0,1.4224,1.4186,1.4197,1.4192,1.4167,1.4142,1.4138,1.4148,1.4168,1.415,1.415,1.4166,1.4111,1.4132,1.4125,1.4099,1.4042,1.4038,1.4034,1.3999,1.399,1.3982,0,0,0,0,0,0,1.4185,1.4186,1.4198,1.4157,1.4149,1.4147,1.4124,1.4138,1.4123,1.4127,1.4139,1.4137,1.4099,1.4095,1.4119,1.4051,1.4079,1.4074,1.4055,1.4046,1.404,1.4041,1.415,0,0,0,0,0,1.4172,1.4153,1.4154,1.4118,1.4114,1.412,1.4109,1.4118,1.4109,1.4105,1.4103,1.4093,1.4073,1.406,1.4042,1.3996,1.3994,1.3974,1.3967,1.3962,1.3956,1.3932,1.3923,1.4018,1.4018,1.4019,0,0,1.4144,1.4142,1.4129,1.411,1.4105,1.4084,1.4116,1.4092,1.4076,1.4101,1.4068,1.4066,1.4056,1.4015,1.3997,1.4011,1.393,1.3956,1.3952,1.395,1.3927,1.3918,1.391,1.4016,1.4016,1.4017,0,0,1.4083,1.4079,1.405,1.4044,1.4037,1.4041,1.4034,1.403,1.403,1.3997,1.4016,1.3996,1.3962,1.3954,1.3946,1.3882,1.3896,1.3876,1.384,1.3816,1.3808,1.3802,1.3779,1.3771,1.3871,1.3871,1.3871,0,1.4048,1.4018,1.4032,1.4007,1.3998,1.4022,1.3991,1.3985,1.3971,1.3963,1.398,1.3938,1.3933,1.3891,1.3876,1.3868,1.3859,1.3877,1.3809,1.3802,1.3796,1.3775,1.3766,1.3869,1.3869,1.3869,1.3869,0,1.3977,1.3956,1.3932,1.392,1.3909,1.3881,1.3889,1.3876,1.3886,1.3888,1.3855,1.3849,1.3831,1.3822,1.383,1.3781,1.379,1.3807,1.3835,1.3784,1.3764,1.3756,1.3865,1.3866,1.3867,1.3867,0,0,1.3889,1.3886,1.3877,1.3872,1.3866,1.3849,1.3822,1.3806,1.3794,1.3784,1.3761,1.3733,1.3749,1.3739,1.3747,1.3727,1.3677,1.3747,1.3747,1.3733,1.3622,1.3608,1.3598,1.3687,1.3685,1.3684,1.3622,0,1.3827,1.3783,1.3795,1.375,1.373,1.3753,1.373,1.3723,1.3725,1.3708,1.3709,1.3689,1.3712,1.3706,1.3687,1.3687,1.3654,1.3692,1.3664,1.3663,1.3666,1.3588,1.3573,1.3516,1.3615,1.3613,1.3612,0,1.375,1.3739,1.3692,1.369,1.3683,1.3662,1.3648,1.3631,1.3624,1.3627,1.3617,1.3629,1.3602,1.3631,1.3593,1.3618,1.3608,1.3606,1.3604,1.3602,1.3634,1.3582,1.3497,1.3488,1.36,1.3601,1.3602,0,1.369,1.3663,1.3632,1.3628,1.3624,1.3609,1.3607,1.3601,1.3591,1.3578,1.3572,1.3555,1.3546,1.3533,1.3541,1.3562,1.3501,1.3531,1.3502,1.3501,1.3487,1.3488,1.3399,1.3482,1.3482,1.3482,1.3482,0,1.362,1.3591,1.3606,1.3586,1.3554,1.3568,1.3535,1.3535,1.353,1.3511,1.3529,1.351,1.3522,1.3503,1.3509,1.3476,1.3472,1.3473,1.3474,1.3471,1.347,1.3463,1.3467,1.348,1.348,1.3481,1.3481,0,1.3548,1.3557,1.3524,1.3525,1.3524,1.35,1.35,1.3481,1.3485,1.346,1.3455,1.3461,1.344,1.3447,1.3424,1.3428,1.3386,1.3394,1.3389,1.3391,1.3361,1.3363,1.3264,1.3251,1.3342,1.3342,1.3341,0,1.3502,1.3481,1.3479,1.3468,1.3465,1.3447,1.3437,1.345,1.3439,1.3429,1.3412,1.3393,1.3379,1.3345,1.3346,1.3329,1.3335,1.3301,1.3332,1.333,1.3334,1.3335,1.3333,1.3295,1.3294,1.3293,1.3292,0,1.3421,1.3427,1.3412,1.34,1.3388,1.3378,1.3369,1.3359,1.3371,1.3357,1.3338,1.3327,1.3305,1.3286,1.327,1.3267,1.3281,1.3283,1.3275,1.327,1.3269,1.3269,1.3372,1.3284,1.3285,1.3286,1.3286,1.3286,1.336,1.3342,1.3339,1.3322,1.3318,1.331,1.3293,1.3295,1.328,1.3264,1.3272,1.3249,1.3242,1.3223,1.3218,1.3199,1.3212,1.32,1.3197,1.3194,1.319,1.3273,1.3196,1.3196,1.3196,1.3197,1.3197,0,1.3279,1.3279,1.3264,1.3252,1.3239,1.3256,1.3248,1.3235,1.3215,1.3208,1.3195,1.3172,1.3154,1.3154,1.3137,1.3122,1.3128,1.3117,1.3118,1.3116,1.318,1.3188,1.3112,1.3112,1.3112,1.3112,1.3112,1.3112,1.3236,1.3206,1.3212,1.318,1.3179,1.3158,1.3152,1.3144,1.3139,1.3113,1.3099,1.31,1.3096,1.3079,1.3063,1.3063,1.3055,1.3042,1.3044,1.3104,1.3112,1.312,1.3128,1.304,1.304,1.2983,1.2982,1.2982]}]]